Satellite-Ground Cal/Val Site Overpasses Predictions

Prediction of Satellite NPP Overpassing Cal/Val Site: Antarctic Dome C

Ground Cal/Val Site Location: Latitude: -75.10, Longitude: 123.35; Satellite-Ground Site NADIR distance within 100 km.

Table of predicted overpasses for the next 14.0 days since TLE Epoch: 5/2/2015
Interval Starting Time Ending Time Minimum Distance Time Minimum Distance (km)
1 05/03/2015 07:23:44 05/03/2015 07:24:04 05/03/2015 07:23:54 73.22
2 05/05/2015 15:05:59 05/05/2015 15:06:23 05/05/2015 15:06:11 52.41
3 05/06/2015 14:47:09 05/06/2015 14:47:33 05/06/2015 14:47:21 56.48
4 05/07/2015 07:48:50 05/07/2015 07:49:10 05/07/2015 07:49:00 72.67
5 05/08/2015 07:29:57 05/08/2015 07:30:24 05/08/2015 07:30:11 35.40
6 05/10/2015 15:12:22 05/10/2015 15:12:34 05/10/2015 15:12:28 90.67
7 05/11/2015 14:53:24 05/11/2015 14:53:53 05/11/2015 14:53:38 20.48


NCC Satellite Cal/Val Overpasses Prediction Service
